User: anonymous   Login
Location: A O Calhoun Middle School
(33.2198°N, 97.1397°W)
Time: 12:47:08
(UTC+00:00)
Language:

Cosmos 1538 Rocket - Orbit

View from above orbital plane
View from above orbital plane
View from above satellite
View from above satellite

Ground track
Ground track

The orbit data is extracted from the following two-line orbital elements,

1 14760U 84019B   22143.03293725  .00000275  00000-0  10336-3 0  9993
2 14760  74.0453  58.0005 0028275 197.5649 162.4530 14.35979482  2056
Epoch (UTC): 23 May 2022 00:47:25
Eccentricity: 0.0028275
inclination: 74.0453°
perigee height: 751 km
apogee height: 792 km
right ascension of ascending node: 58.0005°
argument of perigee: 197.5649°
revolutions per day: 14.35979482
mean anomaly at epoch: 162.4530°
orbit number at epoch: 205

The dashed part of the orbit path shows where the satellite is in the earth's shadow,  

DLR